TimeEDT,TemperatureF,Dew PointF,Humidity,Sea Level PressureIn,VisibilityMPH,Wind Direction,Wind SpeedMPH,Gust SpeedMPH,PrecipitationIn,Events,Conditions,WindDirDegrees,DateUTC
12:55 AM,69.8,64.4,83,30.19,12.0,NNW,4.6,-,N/A,,Partly Cloudy,330,2013-06-22 04:55:00
1:56 AM,68.0,64.4,88,30.17,12.0,North,4.6,-,N/A,,Partly Cloudy,350,2013-06-22 05:56:00
2:55 AM,68.0,64.4,88,30.16,12.0,North,4.6,-,N/A,,Clear,360,2013-06-22 06:55:00
3:55 AM,69.8,66.2,88,30.16,12.0,NNE,8.1,-,N/A,,Mostly Cloudy,20,2013-06-22 07:55:00
4:55 AM,71.6,68.0,88,30.17,12.0,NNE,6.9,-,N/A,,Mostly Cloudy,30,2013-06-22 08:55:00
5:55 AM,71.6,68.0,88,30.17,12.0,NNE,8.1,-,N/A,,Mostly Cloudy,30,2013-06-22 09:55:00
6:55 AM,71.6,68.0,88,30.19,12.0,NNE,8.1,-,N/A,,Overcast,20,2013-06-22 10:55:00
7:55 AM,71.8,67.6,87,30.19,12.0,NE,10.4,-,N/A,,Overcast,40,2013-06-22 11:55:00
8:23 AM,71.8,67.6,87,30.21,12.0,NE,10.4,-,N/A,,Overcast,40,2013-06-22 12:23:00
8:55 AM,74.5,67.6,79,30.19,12.0,NE,11.5,-,N/A,,Overcast,40,2013-06-22 12:55:00
9:55 AM,74.7,67.8,79,30.19,12.0,NNE,9.2,-,N/A,,Mostly Cloudy,20,2013-06-22 13:55:00
10:55 AM,73.2,69.4,88,30.18,4.0,ENE,9.2,-,0.00,Rain,Light Rain,60,2013-06-22 14:55:00
11:55 AM,73.9,68.7,84,30.19,7.0,NE,9.2,-,N/A,,Overcast,40,2013-06-22 15:55:00
12:55 PM,74.5,72.7,94,30.19,7.0,North,9.2,-,N/A,Rain,Light Rain Showers,360,2013-06-22 16:55:00
1:55 PM,78.3,70.5,77,30.18,7.0,NW,8.1,-,0.00,,Overcast,320,2013-06-22 17:55:00
2:55 PM,80.1,68.5,68,30.17,7.0,North,4.6,-,N/A,,Partly Cloudy,10,2013-06-22 18:55:00
3:55 PM,81.0,68.2,65,30.14,10.0,NNE,6.9,-,N/A,,Mostly Cloudy,30,2013-06-22 19:55:00
4:55 PM,82.6,70.2,66,30.14,10.0,North,6.9,-,N/A,,Scattered Clouds,360,2013-06-22 20:55:00
5:55 PM,76.5,71.4,84,30.13,10.0,NE,5.8,-,N/A,,Mostly Cloudy,40,2013-06-22 21:55:00
6:55 PM,76.5,71.4,84,30.13,10.0,NE,4.6,-,N/A,,Scattered Clouds,50,2013-06-22 22:55:00
7:55 PM,77.4,70.9,80,30.14,10.0,NNE,3.5,-,N/A,,Mostly Cloudy,20,2013-06-22 23:55:00
8:55 PM,75.0,70.9,87,30.14,10.0,East,3.5,-,N/A,,Scattered Clouds,100,2013-06-23 00:55:00
9:55 PM,73.2,69.8,89,30.15,10.0,East,4.6,-,N/A,,Clear,90,2013-06-23 01:55:00
10:57 PM,73.2,69.8,89,30.17,12.0,SSW,3.5,-,N/A,,Clear,200,2013-06-23 02:57:00
11:58 PM,69.8,68.0,94,30.18,12.0,North,4.6,-,N/A,,Partly Cloudy,10,2013-06-23 03:58:00